OPS 4682 DEB, 59151

Orbit data source: Space-Track

OPS 4682 DEB, 59151 is space debris in LEO originally from a launch on Sat, 03 Apr 1965 UTC launched from the Air Force Western Test Range (AFWTR). Debris objects in space refer to the collection of defunct objects orbiting the Earth. Examples of debris include non-operational satellites, rocket bodies, and fragments generated from explosions, collisions, or faulty payload assembly.

Loading next visibility...
Identifier
59151, 1965-027HT
Orbit
LEO
Country
Flag of USUS
Related business
Manufacturer
Unknown
Mission
Spacecraft
Bus & Motor
Unknown
Mass
Unknown
Launch date (UTC)
1965-04-03 (61 years ago)
Launch vehicle
Unknown
Launch site
Air Force Western Test Range (AFWTR)
Object type
Payload
Rocket body
Debris
Shape & HBR
Unknown
Radar Cross Section
Medium (>0.1 m² and <1 m²)

Expand to show TLE details & history
Last TLE update: 2 days ago

TLE from 2 days ago
0 OPS 4682 DEB
1 59151U 65027HT  26206.15333212 -.00000272  00000-0 -95056-3 0  9998
2 59151  90.2359   2.0287 0033844 329.2382  30.6755 12.98119678468681
Epoch: 2026-07-25T03:40Z
TLE epoch observation values (Epoch: 2026-07-25T03:40:47.895Z)
Latitude
0.00001°
Longitude
3.95944°
Altitude
1,250.102 km
Speed
7.241 km/s
True Right ascension
00h 08m 06s
True Declination
0° 00' 00"
Sunlit
Object was in daylight at epoch
Visualization orbit readout
Latitude
Unknown
Longitude
Unknown
Altitude
Unknown
Speed
Unknown
Apparent Right ascension
Unknown
Apparent Declination
Unknown
Sunlit
N/A
Visualization observer readout
Local Sidereal Time
00:01:01
Azimuth
Unknown
Elevation
Unknown
Doppler factor
Unknown
Orbital elements
Apogee altitude
1,292.465 km
Perigee altitude
1,240.72 km
Semi-major axis
7,644.729 km
Eccentricity
0.00338
Inclination
90.2359°
RAAN
2.0287°
Arg. of periapsis
329.2382°
True anomaly
30.87408°
Mean anomaly
30.6755°
Eccentric anomaly
30.77472°
Mean motion
3.24713 °/min
Orbital period
110.87 mins
BSTAR
-0.00095056
Loading maneuver chart data...
Computing Atmospheric mass density...
Loading historical data...
Loading historical data...
Loading historical data...
Loading historical data...
Loading historical data...
Loading historical data...
Loading historical data...

Documentation

Showing up to 5 results
|